Погода в Лицене

Австрия     47°34′02″N   14°14′35″E
темп.,
°C
ветер,
м/с
пор.,
м/с
влажн.,
%
обл.,
%
осадки,
мм/ч
давл.,
гПа
погр.,
м
18 января, пн
пн1801:00−12зюз1297100 0.5 102527
04:00−10зюз129798 0.6 102544
07:00−7зюз239799 2.6 1025111
10:00−4з2596100 2.3 1025512
13:00−3зсз2694100 4.3 1024668
16:00−4з2497100 1.4 1024532
19:00−7зюз2297100 2.2 102636
22:00−9зюз229693 0.2 102726
19 января, вт
вт1901:00−10юз229367 0.2 102721
04:00−9юз228763 0.0 102622
07:00−9ююз227977 0.0 102521
10:00−4ююз227986 0.0 102374
13:000ююз239066 0.0 1020212
16:00−2ююз238055 0.0 101838
19:00−5юз227374 0.0 101924
22:00−5юз227490 0.0 101921
20 января, ср
ср2001:00−5ююз227295 0.0 101921
04:00−5ююз2269100 0.0 101821
07:00−4ю2269100 0.0 101824
10:000ю2280100 0.0 101668
13:00+2ю239682 0.0 1014103
16:00−2ю33808 0.0 101260
19:00−6ю33864 0.0 101367
22:00−5ю33913 0.0 101278
21 января, чт
чт2101:00−6ю33893 0.0 101169
04:00−6ююз33908 0.0 100974
07:00−5ю338816 0.0 100966
10:00−1ююз248789 0.0 1008223
13:00+1ю239895 0.0 1007217
16:00+1ю2491100 0.0 1007137
19:00−1ю3390100 0.0 1007113
22:00−1ю348939 0.0 1005126
22 января, пт
пт2201:00−1ю348869 0.0 1002103
04:00+1ююв358895 0.0 999144
07:00+1ююв348998 0.0 999121
10:00+1ююв12100100 0.1 999102
13:00+1с12100100 0.8 99874
16:00−1с1299100 7.9 999134
19:00−2ссз2399100 11.8 1003220
22:00−4сз2298100 1.4 100594